OBJECT C, 67748

Orbit data source: Space-Track

You're viewing an Uncataloged Satellite

Recently launched and/or uncataloged satellites may have evolving metadata. Metadata may include but not limited to: Owner, Maufacturer, Bus, Motor, and Mission.

OBJECT C, 67748 is a Chinese satellite in SSO that was launched on Thu, 12 Feb 2026 UTC via a JIELONG-3 launch vehicle from the South China Sea Launch Area (SCSLA). Unknown objects in Earth's orbit typically refer to objects detected orbiting the Earth but have not yet been identified or cataloged. These objects could be anything from previously untracked satellites, spent rocket stages, debris from satellite collisions, or even natural meteoroids temporarily captured by Earth's gravity.

Loading next visibility...
Identifier
67748, 2026-027C
Orbit
SSO
Country
Flag of CNCN / PRC
Related business
None
Manufacturer
Unknown
Mission
Operational Commercial Imaging
Bus & Motor
Unknown
Mass
Unknown
Launch date (UTC)
2026-02-12 (4 months ago)
Launch vehicle
JIELONG-3
Launch site
South China Sea Launch Area (SCSLA)
Object type
Unknown
Shape & HBR
Box, 1.1 m
Radar Cross Section
0.080 m², Large (>1 m²)

Expand to show TLE details & history
Last TLE update: 5 hours ago

TLE from 5 hours ago
0 OBJECT C
1 67748U 26027C   26164.85256912  .00004923  00000-0  23968-3 0  9995
2 67748  97.5069 293.0589 0009699 225.3132 134.7313 15.18801442 18451
Epoch: 2026-06-13T20:27Z
TLE epoch observation values (Epoch: 2026-06-13T20:27:41.971Z)
Latitude
-0.00003°
Longitude
83.97231°
Altitude
517.253 km
Speed
7.602 km/s
True Right ascension
19h 32m 14s
True Declination
0° 00' 00"
Sunlit
Object was in full shadow at epoch
Visualization orbit readout
Latitude
Unknown
Longitude
Unknown
Altitude
Unknown
Speed
Unknown
Apparent Right ascension
Unknown
Apparent Declination
Unknown
Sunlit
N/A
Visualization observer readout
Local Sidereal Time
11:47:13
Azimuth
Unknown
Elevation
Unknown
Doppler factor
Unknown
Orbital elements
Apogee altitude
513.111 km
Perigee altitude
499.756 km
Semi-major axis
6,884.571 km
Eccentricity
0.00097
Inclination
97.5069°
RAAN
293.0589°
Arg. of periapsis
225.3132°
True anomaly
134.81019°
Mean anomaly
134.7313°
Eccentric anomaly
134.77075°
Mean motion
3.79951 °/min
Orbital period
94.75 mins
BSTAR
0.00023968
Loading maneuver chart data...
Computing Atmospheric mass density...
Loading historical data...
Loading historical data...
Loading historical data...
Loading historical data...
Loading historical data...
Loading historical data...
Loading historical data...

Documentation

Showing up to 5 results
|